Time,TemperatureF,DewpointF,PressureIn,WindDirection,WindDirectionDegrees,WindSpeedMPH,WindSpeedGustMPH,Humidity,HourlyPrecipIn,Conditions,Clouds,dailyrainin,SoftwareType,DateUTC
2013-02-24 00:01:00,36.1,32.6,30.42,North,355,4.6,4.6,87,0.00,CLR,,0.00,WeatherDisplay:10.37,2013-02-24 00:01:00,
2013-02-24 00:06:00,36.1,32.6,30.42,NE,41,7.0,7.0,87,0.00,CLR,,0.00,WeatherDisplay:10.37,2013-02-24 00:06:00,
2013-02-24 00:11:00,36.1,32.6,30.41,NNE,20,4.6,4.6,87,0.00,CLR,,0.00,WeatherDisplay:10.37,2013-02-24 00:11:00,
2013-02-24 00:17:00,36.1,32.6,30.41,NNE,30,5.0,5.0,87,0.00,CLR,,0.00,WeatherDisplay:10.37,2013-02-24 00:17:00,
2013-02-24 00:22:00,36.2,32.7,30.41,NNW,341,9.2,9.2,87,0.00,CLR,,0.00,WeatherDisplay:10.37,2013-02-24 00:22:00,
2013-02-24 00:27:00,36.3,32.5,30.41,North,359,5.8,5.8,86,0.00,CLR,,0.00,WeatherDisplay:10.37,2013-02-24 00:27:00,
2013-02-24 00:32:00,36.4,32.6,30.41,NNE,23,4.6,4.6,86,0.00,CLR,,0.00,WeatherDisplay:10.37,2013-02-24 00:32:00,
2013-02-24 00:37:00,36.4,32.6,30.41,NE,47,10.4,10.4,86,0.00,CLR,,0.00,WeatherDisplay:10.37,2013-02-24 00:37:00,
2013-02-24 00:42:00,36.3,32.5,30.41,NNE,16,3.5,3.5,86,0.00,CLR,,0.00,WeatherDisplay:10.37,2013-02-24 00:42:00,
2013-02-24 00:47:00,36.3,32.5,30.41,NE,40,4.6,4.6,86,0.00,CLR,,0.00,WeatherDisplay:10.37,2013-02-24 00:47:00,
2013-02-24 00:52:00,36.3,32.5,30.41,NE,54,3.5,3.5,86,0.00,CLR,,0.00,WeatherDisplay:10.37,2013-02-24 00:52:00,
2013-02-24 00:57:00,36.4,32.6,30.41,NW,324,3.5,3.5,86,0.00,CLR,,0.00,WeatherDisplay:10.37,2013-02-24 00:57:00,
2013-02-24 01:02:00,36.4,32.6,30.42,North,352,3.5,3.5,86,0.00,CLR,,0.00,WeatherDisplay:10.37,2013-02-24 01:02:00,
2013-02-24 01:07:00,36.4,32.3,30.41,North,6,5.0,5.0,85,0.00,CLR,,0.00,WeatherDisplay:10.37,2013-02-24 01:07:00,
2013-02-24 01:12:00,36.5,32.4,30.41,NNW,348,5.8,5.8,85,0.00,CLR,,0.00,WeatherDisplay:10.37,2013-02-24 01:12:00,
2013-02-24 01:17:00,36.5,32.1,30.41,NNW,337,4.0,4.0,84,0.00,CLR,,0.00,WeatherDisplay:10.37,2013-02-24 01:17:00,
2013-02-24 01:22:00,36.6,32.5,30.41,West,259,2.0,2.0,85,0.00,CLR,,0.00,WeatherDisplay:10.37,2013-02-24 01:22:00,
2013-02-24 01:27:00,36.6,32.5,30.41,WSW,248,2.3,2.3,85,0.00,CLR,,0.00,WeatherDisplay:10.37,2013-02-24 01:27:00,
2013-02-24 01:32:00,36.6,33.1,30.41,WSW,250,4.6,4.6,87,0.00,CLR,,0.00,WeatherDisplay:10.37,2013-02-24 01:32:00,
2013-02-24 01:37:00,36.5,33.3,30.41,SW,233,3.5,3.5,88,0.00,CLR,,0.00,WeatherDisplay:10.37,2013-02-24 01:37:00,
2013-02-24 01:42:00,36.5,33.3,30.41,WSW,239,3.0,3.0,88,0.00,CLR,,0.00,WeatherDisplay:10.37,2013-02-24 01:42:00,
2013-02-24 01:47:00,36.5,33.3,30.41,SW,221,2.3,2.3,88,0.00,CLR,,0.00,WeatherDisplay:10.37,2013-02-24 01:47:00,
2013-02-24 01:52:00,36.6,33.4,30.41,WSW,247,3.5,3.5,88,0.00,CLR,,0.00,WeatherDisplay:10.37,2013-02-24 01:52:00,
2013-02-24 01:57:00,36.5,33.3,30.41,SW,229,2.3,2.3,88,0.00,CLR,,0.00,WeatherDisplay:10.37,2013-02-24 01:57:00,
2013-02-24 02:02:00,36.5,33.3,30.41,SSW,211,3.5,3.5,88,0.00,CLR,,0.00,WeatherDisplay:10.37,2013-02-24 02:02:00,
2013-02-24 02:07:00,36.7,33.5,30.41,SW,225,3.5,3.5,88,0.00,CLR,,0.00,WeatherDisplay:10.37,2013-02-24 02:07:00,
2013-02-24 02:13:00,36.7,33.5,30.42,WSW,242,3.0,3.0,88,0.00,CLR,,0.00,WeatherDisplay:10.37,2013-02-24 02:13:00,
2013-02-24 02:18:00,36.6,33.1,30.41,South,180,3.5,3.5,87,0.00,CLR,,0.00,WeatherDisplay:10.37,2013-02-24 02:18:00,
2013-02-24 02:23:00,36.7,33.5,30.41,ESE,122,5.0,5.0,88,0.00,CLR,,0.00,WeatherDisplay:10.37,2013-02-24 02:23:00,
2013-02-24 02:28:00,36.7,33.5,30.42,South,181,3.5,3.5,88,0.00,CLR,,0.00,WeatherDisplay:10.37,2013-02-24 02:28:00,
2013-02-24 02:33:00,36.7,33.5,30.42,ENE,71,3.5,3.5,88,0.00,CLR,,0.00,WeatherDisplay:10.37,2013-02-24 02:33:00,
2013-02-24 02:38:00,36.5,33.3,30.42,East,85,1.2,1.2,88,0.00,CLR,,0.00,WeatherDisplay:10.37,2013-02-24 02:38:00,
2013-02-24 02:43:00,36.2,32.7,30.42,East,85,1.2,1.2,87,0.00,CLR,,0.00,WeatherDisplay:10.37,2013-02-24 02:43:00,
2013-02-24 02:48:00,36.0,32.8,30.42,East,85,1.2,1.2,88,0.00,CLR,,0.00,WeatherDisplay:10.37,2013-02-24 02:48:00,
2013-02-24 02:53:00,35.9,32.7,30.41,East,84,0.0,0.0,88,0.00,CLR,,0.00,WeatherDisplay:10.37,2013-02-24 02:53:00,
2013-02-24 02:58:00,35.7,32.5,30.42,East,85,1.2,0.0,88,0.00,CLR,,0.00,WeatherDisplay:10.37,2013-02-24 02:58:00,
2013-02-24 03:04:00,35.7,32.5,30.41,East,85,0.0,0.0,88,0.00,CLR,,0.00,WeatherDisplay:10.37,2013-02-24 03:04:00,
2013-02-24 03:09:00,35.5,32.3,30.41,East,85,0.0,0.0,88,0.00,CLR,,0.00,WeatherDisplay:10.37,2013-02-24 03:09:00,
2013-02-24 03:14:00,35.4,32.2,30.41,NNW,341,0.0,0.0,88,0.00,CLR,,0.00,WeatherDisplay:10.37,2013-02-24 03:14:00,
2013-02-24 03:19:00,35.1,32.2,30.41,NW,324,0.0,0.0,89,0.00,CLR,,0.00,WeatherDisplay:10.37,2013-02-24 03:19:00,
2013-02-24 03:24:00,35.1,32.2,30.41,NW,323,0.0,0.0,89,0.00,CLR,,0.00,WeatherDisplay:10.37,2013-02-24 03:24:00,
2013-02-24 03:29:00,35.1,32.2,30.41,WNW,303,0.0,0.0,89,0.00,CLR,,0.00,WeatherDisplay:10.37,2013-02-24 03:29:00,
2013-02-24 03:34:00,35.1,31.6,30.41,NNW,327,2.3,2.3,87,0.00,CLR,,0.00,WeatherDisplay:10.37,2013-02-24 03:34:00,
2013-02-24 03:39:00,35.1,31.6,30.41,WSW,250,1.0,1.0,87,0.00,CLR,,0.00,WeatherDisplay:10.37,2013-02-24 03:39:00,
2013-02-24 03:44:00,35.2,32.0,30.41,ESE,113,2.3,2.3,88,0.00,CLR,,0.00,WeatherDisplay:10.37,2013-02-24 03:44:00,
2013-02-24 03:49:00,35.1,31.6,30.41,North,3,1.2,1.2,87,0.00,CLR,,0.00,WeatherDisplay:10.37,2013-02-24 03:49:00,
2013-02-24 03:54:00,34.7,31.5,30.41,NNW,340,1.2,0.0,88,0.00,CLR,,0.00,WeatherDisplay:10.37,2013-02-24 03:54:00,
2013-02-24 03:59:00,34.6,31.4,30.41,NW,325,1.2,1.2,88,0.00,CLR,,0.00,WeatherDisplay:10.37,2013-02-24 03:59:00,
2013-02-24 04:04:00,34.3,31.1,30.41,NNW,328,2.3,2.3,88,0.00,CLR,,0.00,WeatherDisplay:10.37,2013-02-24 04:04:00,
2013-02-24 04:09:00,33.9,30.7,30.41,North,354,2.0,2.0,88,0.00,CLR,,0.00,WeatherDisplay:10.37,2013-02-24 04:09:00,
2013-02-24 04:14:00,33.4,30.5,30.42,North,351,1.2,1.2,89,0.00,CLR,,0.00,WeatherDisplay:10.37,2013-02-24 04:14:00,
2013-02-24 04:19:00,33.8,31.2,30.42,North,351,1.2,1.2,90,0.00,CLR,,0.00,WeatherDisplay:10.37,2013-02-24 04:19:00,
2013-02-24 04:25:00,33.7,30.8,30.42,ENE,71,1.0,1.0,89,0.00,CLR,,0.00,WeatherDisplay:10.37,2013-02-24 04:25:00,
2013-02-24 04:30:00,33.7,31.4,30.42,ENE,70,3.5,3.5,91,0.00,CLR,,0.00,WeatherDisplay:10.37,2013-02-24 04:30:00,
2013-02-24 04:35:00,33.1,30.2,30.42,NNW,334,2.3,2.3,89,0.00,CLR,,0.00,WeatherDisplay:10.37,2013-02-24 04:35:00,
2013-02-24 04:40:00,33.1,30.8,30.42,North,3,2.3,2.3,91,0.00,CLR,,0.00,WeatherDisplay:10.37,2013-02-24 04:40:00,
2013-02-24 04:45:00,33.0,30.4,30.42,East,92,2.3,2.3,90,0.00,CLR,,0.00,WeatherDisplay:10.37,2013-02-24 04:45:00,
2013-02-24 04:50:00,33.1,30.5,30.42,NNE,29,3.5,3.5,90,0.00,CLR,,0.00,WeatherDisplay:10.37,2013-02-24 04:50:00,
2013-02-24 04:56:00,33.1,30.5,30.42,NNE,30,1.2,1.2,90,0.00,CLR,,0.00,WeatherDisplay:10.37,2013-02-24 04:56:00,
2013-02-24 05:00:00,33.1,30.5,30.42,North,358,1.2,1.2,90,0.00,CLR,,0.00,WeatherDisplay:10.37,2013-02-24 05:00:00,
2013-02-24 05:05:00,33.1,30.5,30.42,NNW,348,0.0,0.0,90,0.00,CLR,,0.00,WeatherDisplay:10.37,2013-02-24 05:05:00,
2013-02-24 05:10:00,33.0,30.4,30.42,NNW,348,0.0,0.0,90,0.00,CLR,,0.00,WeatherDisplay:10.37,2013-02-24 05:10:00,
2013-02-24 05:15:00,33.1,30.5,30.42,NW,323,1.2,1.2,90,0.00,CLR,,0.00,WeatherDisplay:10.37,2013-02-24 05:15:00,
2013-02-24 05:20:00,32.9,30.3,30.42,NW,320,1.2,1.2,90,0.00,CLR,,0.00,WeatherDisplay:10.37,2013-02-24 05:20:00,
2013-02-24 05:25:00,32.9,30.6,30.42,NW,320,1.2,1.2,91,0.00,CLR,,0.00,WeatherDisplay:10.37,2013-02-24 05:25:00,
2013-02-24 05:30:00,33.0,30.7,30.42,NW,307,0.0,0.0,91,0.00,CLR,,0.00,WeatherDisplay:10.37,2013-02-24 05:30:00,
2013-02-24 05:35:00,33.2,30.9,30.42,NW,307,1.2,0.0,91,0.00,CLR,,0.00,WeatherDisplay:10.37,2013-02-24 05:35:00,
2013-02-24 05:40:00,33.5,31.2,30.42,WNW,299,1.2,1.2,91,0.00,CLR,,0.00,WeatherDisplay:10.37,2013-02-24 05:40:00,
2013-02-24 05:45:00,33.7,31.4,30.42,WNW,299,1.2,1.2,91,0.00,CLR,,0.00,WeatherDisplay:10.37,2013-02-24 05:45:00,
2013-02-24 05:50:00,33.6,31.0,30.42,WNW,300,1.2,1.2,90,0.00,CLR,,0.00,WeatherDisplay:10.37,2013-02-24 05:50:00,
2013-02-24 05:55:00,33.8,31.5,30.42,WNW,293,3.5,3.5,91,0.00,CLR,,0.00,WeatherDisplay:10.37,2013-02-24 05:55:00,
2013-02-24 06:00:00,34.3,31.7,30.42,NNW,333,3.5,3.5,90,0.00,CLR,,0.00,WeatherDisplay:10.37,2013-02-24 06:00:00,
2013-02-24 06:05:00,34.2,31.6,30.43,NNW,337,3.5,3.5,90,0.00,CLR,,0.00,WeatherDisplay:10.37,2013-02-24 06:05:00,
2013-02-24 06:10:00,34.3,31.7,30.43,WNW,283,0.0,0.0,90,0.00,CLR,,0.00,WeatherDisplay:10.37,2013-02-24 06:10:00,
2013-02-24 06:15:00,34.1,31.2,30.43,NNW,333,2.3,2.3,89,0.00,CLR,,0.00,WeatherDisplay:10.37,2013-02-24 06:15:00,
2013-02-24 06:20:00,34.0,31.1,30.42,WNW,293,0.0,0.1,89,0.00,CLR,,0.00,WeatherDisplay:10.37,2013-02-24 06:20:00,
2013-02-24 06:25:00,33.6,30.7,30.42,NNW,335,2.3,2.3,89,0.00,CLR,,0.00,WeatherDisplay:10.37,2013-02-24 06:25:00,
2013-02-24 06:30:00,33.4,30.5,30.43,NNW,338,2.3,2.3,89,0.00,CLR,,0.00,WeatherDisplay:10.37,2013-02-24 06:30:00,
2013-02-24 06:35:00,33.0,30.1,30.42,NNW,337,1.2,0.0,89,0.00,CLR,,0.00,WeatherDisplay:10.37,2013-02-24 06:35:00,
2013-02-24 06:40:00,32.4,29.5,30.42,NNW,337,1.2,1.2,89,0.00,CLR,,0.00,WeatherDisplay:10.37,2013-02-24 06:40:00,
2013-02-24 06:45:00,32.3,29.7,30.42,NNW,337,0.0,0.0,90,0.00,CLR,,0.00,WeatherDisplay:10.37,2013-02-24 06:45:00,
2013-02-24 06:50:00,32.6,30.3,30.42,NNW,337,0.0,0.0,91,0.00,CLR,,0.00,WeatherDisplay:10.37,2013-02-24 06:50:00,
2013-02-24 06:55:00,32.9,30.3,30.42,West,274,0.0,0.0,90,0.00,CLR,,0.00,WeatherDisplay:10.37,2013-02-24 06:55:00,
2013-02-24 07:00:00,32.4,29.5,30.43,West,275,1.2,1.2,89,0.00,CLR,,0.00,WeatherDisplay:10.37,2013-02-24 07:00:00,
2013-02-24 07:05:00,32.1,29.5,30.42,West,275,1.0,0.0,90,0.00,CLR,,0.00,WeatherDisplay:10.37,2013-02-24 07:05:00,
2013-02-24 07:10:00,32.1,29.8,30.43,WNW,282,1.2,0.0,91,0.00,CLR,,0.00,WeatherDisplay:10.37,2013-02-24 07:10:00,
2013-02-24 07:15:00,32.3,30.0,30.43,WNW,283,2.3,2.3,91,0.00,CLR,,0.00,WeatherDisplay:10.37,2013-02-24 07:15:00,
2013-02-24 07:20:00,32.7,30.4,30.43,WNW,282,1.2,0.0,91,0.00,CLR,,0.00,WeatherDisplay:10.37,2013-02-24 07:20:00,
2013-02-24 07:25:00,32.5,29.9,30.43,NNE,33,1.2,0.0,90,0.00,CLR,,0.00,WeatherDisplay:10.37,2013-02-24 07:25:00,
2013-02-24 07:30:00,32.3,30.0,30.43,WNW,289,0.0,0.1,91,0.00,CLR,,0.00,WeatherDisplay:10.37,2013-02-24 07:30:00,
2013-02-24 07:35:00,32.1,29.8,30.43,WNW,296,1.2,0.0,91,0.00,CLR,,0.00,WeatherDisplay:10.37,2013-02-24 07:35:00,
2013-02-24 07:40:00,32.2,29.9,30.43,WNW,297,1.2,1.2,91,0.00,CLR,,0.00,WeatherDisplay:10.37,2013-02-24 07:40:00,
2013-02-24 07:45:00,32.1,29.8,30.44,WNW,296,1.2,0.0,91,0.00,CLR,,0.00,WeatherDisplay:10.37,2013-02-24 07:45:00,
2013-02-24 07:50:00,32.1,29.8,30.44,WNW,299,1.2,1.2,91,0.00,CLR,,0.00,WeatherDisplay:10.37,2013-02-24 07:50:00,
2013-02-24 07:55:00,32.3,30.0,30.44,NW,304,1.2,1.2,91,0.00,CLR,,0.00,WeatherDisplay:10.37,2013-02-24 07:55:00,
2013-02-24 08:00:00,32.4,30.1,30.44,NW,304,0.0,0.0,91,0.00,CLR,,0.00,WeatherDisplay:10.37,2013-02-24 08:00:00,
2013-02-24 08:06:00,32.7,30.4,30.44,NW,304,2.3,2.3,91,0.00,CLR,,0.00,WeatherDisplay:10.37,2013-02-24 08:06:00,
2013-02-24 08:11:00,32.8,30.5,30.44,NW,322,0.0,0.0,91,0.00,CLR,,0.00,WeatherDisplay:10.37,2013-02-24 08:11:00,
2013-02-24 08:16:00,33.0,30.7,30.45,NW,324,1.2,1.2,91,0.00,CLR,,0.00,WeatherDisplay:10.37,2013-02-24 08:16:00,
2013-02-24 08:21:00,33.1,30.8,30.45,NW,325,0.0,0.0,91,0.00,CLR,,0.00,WeatherDisplay:10.37,2013-02-24 08:21:00,
2013-02-24 08:26:00,33.2,30.9,30.45,NW,323,0.0,0.0,91,0.00,CLR,,0.00,WeatherDisplay:10.37,2013-02-24 08:26:00,
2013-02-24 08:31:00,33.4,31.1,30.45,NW,323,0.0,0.0,91,0.00,CLR,,0.00,WeatherDisplay:10.37,2013-02-24 08:31:00,
2013-02-24 08:36:00,33.6,31.3,30.45,NW,323,0.0,0.0,91,0.00,CLR,,0.00,WeatherDisplay:10.37,2013-02-24 08:36:00,
2013-02-24 08:41:00,33.8,31.2,30.45,NW,323,0.0,0.0,90,0.00,CLR,,0.00,WeatherDisplay:10.37,2013-02-24 08:41:00,
2013-02-24 08:46:00,33.7,31.1,30.46,NW,324,2.3,2.3,90,0.00,CLR,,0.00,WeatherDisplay:10.37,2013-02-24 08:46:00,
2013-02-24 08:52:00,33.6,31.0,30.46,NW,323,0.0,0.0,90,0.00,CLR,,0.00,WeatherDisplay:10.37,2013-02-24 08:52:00,
2013-02-24 08:57:00,33.7,31.1,30.46,NW,323,1.2,0.0,90,0.00,CLR,,0.00,WeatherDisplay:10.37,2013-02-24 08:57:00,
2013-02-24 09:02:00,33.9,31.3,30.46,NW,323,0.0,0.0,90,0.00,CLR,,0.00,WeatherDisplay:10.37,2013-02-24 09:02:00,
2013-02-24 09:07:00,34.1,31.5,30.46,NW,323,0.0,0.0,90,0.00,CLR,,0.00,WeatherDisplay:10.37,2013-02-24 09:07:00,
2013-02-24 09:12:00,34.4,31.8,30.46,WNW,286,1.2,1.2,90,0.00,CLR,,0.00,WeatherDisplay:10.37,2013-02-24 09:12:00,
2013-02-24 09:17:00,34.7,32.1,30.46,WNW,286,2.3,2.3,90,0.00,CLR,,0.00,WeatherDisplay:10.37,2013-02-24 09:17:00,
2013-02-24 09:22:00,35.0,31.8,30.46,WNW,283,2.3,2.3,88,0.00,CLR,,0.00,WeatherDisplay:10.37,2013-02-24 09:22:00,
2013-02-24 09:27:00,35.3,32.1,30.46,WNW,283,2.3,2.3,88,0.00,CLR,,0.00,WeatherDisplay:10.37,2013-02-24 09:27:00,
2013-02-24 09:32:00,35.5,32.0,30.46,WNW,287,2.3,2.3,87,0.00,CLR,,0.00,WeatherDisplay:10.37,2013-02-24 09:32:00,
2013-02-24 09:37:00,35.6,31.8,30.46,WNW,292,1.2,1.2,86,0.00,CLR,,0.00,WeatherDisplay:10.37,2013-02-24 09:37:00,
2013-02-24 09:42:00,35.7,31.9,30.47,WNW,289,2.3,2.3,86,0.00,CLR,,0.00,WeatherDisplay:10.37,2013-02-24 09:42:00,
2013-02-24 09:47:00,35.9,32.1,30.47,West,267,3.5,3.5,86,0.00,CLR,,0.00,WeatherDisplay:10.37,2013-02-24 09:47:00,
2013-02-24 09:52:00,35.9,32.1,30.46,West,261,2.3,2.3,86,0.00,CLR,,0.00,WeatherDisplay:10.37,2013-02-24 09:52:00,
2013-02-24 09:57:00,36.2,32.4,30.47,West,261,1.2,1.2,86,0.00,CLR,,0.00,WeatherDisplay:10.37,2013-02-24 09:57:00,
2013-02-24 10:02:00,36.4,32.3,30.47,West,273,2.3,2.3,85,0.00,CLR,,0.00,WeatherDisplay:10.37,2013-02-24 10:02:00,
2013-02-24 10:07:00,36.4,32.3,30.47,West,278,3.5,3.5,85,0.00,CLR,,0.00,WeatherDisplay:10.37,2013-02-24 10:07:00,
2013-02-24 10:12:00,36.4,32.3,30.47,West,261,3.5,3.5,85,0.00,CLR,,0.00,WeatherDisplay:10.37,2013-02-24 10:12:00,
2013-02-24 10:17:00,36.4,32.0,30.47,West,271,2.3,2.3,84,0.00,CLR,,0.00,WeatherDisplay:10.37,2013-02-24 10:17:00,
2013-02-24 10:22:00,36.4,32.0,30.47,West,269,2.3,2.3,84,0.00,CLR,,0.00,WeatherDisplay:10.37,2013-02-24 10:22:00,
2013-02-24 10:27:00,36.6,32.2,30.47,West,271,2.3,2.3,84,0.00,CLR,,0.00,WeatherDisplay:10.37,2013-02-24 10:27:00,
2013-02-24 10:32:00,36.7,32.3,30.47,West,271,1.2,1.2,84,0.00,CLR,,0.00,WeatherDisplay:10.37,2013-02-24 10:32:00,
2013-02-24 10:38:00,36.9,32.5,30.47,West,264,2.3,2.3,84,0.00,CLR,,0.00,WeatherDisplay:10.37,2013-02-24 10:38:00,
2013-02-24 10:43:00,36.9,32.5,30.47,West,264,2.3,2.3,84,0.00,CLR,,0.00,WeatherDisplay:10.37,2013-02-24 10:43:00,
2013-02-24 10:48:00,37.1,32.7,30.47,West,279,2.3,2.3,84,0.00,CLR,,0.00,WeatherDisplay:10.37,2013-02-24 10:48:00,
2013-02-24 10:53:00,37.2,32.8,30.47,WNW,287,2.3,2.3,84,0.00,CLR,,0.00,WeatherDisplay:10.37,2013-02-24 10:53:00,
2013-02-24 10:58:00,37.5,33.1,30.47,WNW,296,3.5,3.5,84,0.00,CLR,,0.00,WeatherDisplay:10.37,2013-02-24 10:58:00,
2013-02-24 11:03:00,37.6,32.6,30.47,WNW,302,3.5,3.5,82,0.00,CLR,,0.00,WeatherDisplay:10.37,2013-02-24 11:03:00,
2013-02-24 11:08:00,37.8,32.8,30.47,WNW,283,3.5,3.5,82,0.00,CLR,,0.00,WeatherDisplay:10.37,2013-02-24 11:08:00,
2013-02-24 11:13:00,38.0,32.7,30.47,WNW,285,3.5,3.5,81,0.00,CLR,,0.00,WeatherDisplay:10.37,2013-02-24 11:13:00,
2013-02-24 11:18:00,38.4,33.1,30.48,West,277,2.3,2.3,81,0.00,CLR,,0.00,WeatherDisplay:10.37,2013-02-24 11:18:00,
2013-02-24 11:23:00,38.5,33.2,30.47,West,280,3.5,3.5,81,0.00,CLR,,0.00,WeatherDisplay:10.37,2013-02-24 11:23:00,
2013-02-24 11:28:00,38.5,33.2,30.48,WNW,287,2.3,2.3,81,0.00,CLR,,0.00,WeatherDisplay:10.37,2013-02-24 11:28:00,
2013-02-24 11:33:00,38.7,33.1,30.47,West,274,3.5,3.5,80,0.00,CLR,,0.00,WeatherDisplay:10.37,2013-02-24 11:33:00,
2013-02-24 11:38:00,38.7,33.4,30.48,West,263,1.2,1.2,81,0.00,CLR,,0.00,WeatherDisplay:10.37,2013-02-24 11:38:00,
2013-02-24 11:43:00,38.8,33.5,30.48,WSW,248,2.3,2.3,81,0.00,CLR,,0.00,WeatherDisplay:10.37,2013-02-24 11:43:00,
2013-02-24 11:48:00,38.6,33.6,30.47,SSW,213,3.5,3.5,82,0.00,CLR,,0.00,WeatherDisplay:10.37,2013-02-24 11:48:00,
2013-02-24 11:53:00,38.6,33.3,30.47,SSW,209,2.3,2.3,81,0.00,CLR,,0.00,WeatherDisplay:10.37,2013-02-24 11:53:00,
2013-02-24 11:58:00,38.7,33.4,30.47,SSW,212,3.5,3.5,81,0.00,CLR,,0.00,WeatherDisplay:10.37,2013-02-24 11:58:00,
2013-02-24 12:04:00,38.9,32.9,30.47,SW,216,2.3,2.3,79,0.00,CLR,,0.00,WeatherDisplay:10.37,2013-02-24 12:04:00,
2013-02-24 12:09:00,39.0,32.7,30.47,SW,217,2.3,2.3,78,0.00,CLR,,0.00,WeatherDisplay:10.37,2013-02-24 12:09:00,
2013-02-24 12:14:00,39.1,32.8,30.47,SW,219,1.2,1.2,78,0.00,CLR,,0.00,WeatherDisplay:10.37,2013-02-24 12:14:00,
2013-02-24 12:19:00,39.3,33.0,30.47,SW,219,1.2,0.0,78,0.00,CLR,,0.00,WeatherDisplay:10.37,2013-02-24 12:19:00,
2013-02-24 12:24:00,39.6,33.3,30.47,SW,219,1.2,1.2,78,0.00,CLR,,0.00,WeatherDisplay:10.37,2013-02-24 12:24:00,
2013-02-24 12:29:00,39.9,33.9,30.47,SW,219,1.2,1.2,79,0.00,CLR,,0.00,WeatherDisplay:10.37,2013-02-24 12:29:00,
2013-02-24 12:34:00,40.1,33.8,30.47,SW,219,0.0,0.4,78,0.00,CLR,,0.00,WeatherDisplay:10.37,2013-02-24 12:34:00,
2013-02-24 12:39:00,40.4,33.4,30.46,SW,219,0.0,0.0,76,0.00,CLR,,0.00,WeatherDisplay:10.37,2013-02-24 12:39:00,
2013-02-24 12:44:00,40.2,33.2,30.46,SW,217,2.3,2.3,76,0.00,CLR,,0.00,WeatherDisplay:10.37,2013-02-24 12:44:00,
2013-02-24 12:49:00,40.5,34.2,30.46,South,179,3.5,3.5,78,0.00,CLR,,0.00,WeatherDisplay:10.37,2013-02-24 12:49:00,
2013-02-24 12:54:00,40.2,33.9,30.46,SE,138,2.3,2.3,78,0.00,CLR,,0.00,WeatherDisplay:10.37,2013-02-24 12:54:00,
2013-02-24 12:59:00,40.4,34.1,30.46,SSE,167,2.3,2.3,78,0.00,CLR,,0.00,WeatherDisplay:10.37,2013-02-24 12:59:00,
2013-02-24 13:04:00,40.6,34.3,30.46,South,169,2.3,2.3,78,0.00,CLR,,0.00,WeatherDisplay:10.37,2013-02-24 13:04:00,
2013-02-24 13:09:00,40.7,34.4,30.46,South,169,1.2,1.2,78,0.00,CLR,,0.00,WeatherDisplay:10.37,2013-02-24 13:09:00,
2013-02-24 13:14:00,40.9,34.2,30.46,SSW,198,1.2,1.2,77,0.00,CLR,,0.00,WeatherDisplay:10.37,2013-02-24 13:14:00,
2013-02-24 13:19:00,41.1,34.4,30.46,SSW,198,0.0,0.0,77,0.00,CLR,,0.00,WeatherDisplay:10.37,2013-02-24 13:19:00,
2013-02-24 13:24:00,41.3,34.6,30.46,SSW,194,2.0,2.0,77,0.00,CLR,,0.00,WeatherDisplay:10.37,2013-02-24 13:24:00,
2013-02-24 13:29:00,41.3,34.0,30.46,SSW,194,1.2,1.2,75,0.00,CLR,,0.00,WeatherDisplay:10.37,2013-02-24 13:29:00,
2013-02-24 13:34:00,41.2,33.5,30.46,SW,217,1.2,1.2,74,0.00,CLR,,0.00,WeatherDisplay:10.37,2013-02-24 13:34:00,
2013-02-24 13:39:00,41.2,33.9,30.46,WSW,247,2.3,2.3,75,0.00,CLR,,0.00,WeatherDisplay:10.37,2013-02-24 13:39:00,
2013-02-24 13:44:00,41.3,34.0,30.46,WSW,246,1.2,1.2,75,0.00,CLR,,0.00,WeatherDisplay:10.37,2013-02-24 13:44:00,
2013-02-24 13:49:00,41.3,34.0,30.45,WSW,245,2.3,2.3,75,0.00,CLR,,0.00,WeatherDisplay:10.37,2013-02-24 13:49:00,
2013-02-24 13:54:00,41.3,33.6,30.45,SW,216,2.3,2.3,74,0.00,CLR,,0.00,WeatherDisplay:10.37,2013-02-24 13:54:00,
2013-02-24 13:59:00,41.4,34.1,30.45,WSW,248,2.3,2.3,75,0.00,CLR,,0.00,WeatherDisplay:10.37,2013-02-24 13:59:00,
2013-02-24 14:04:00,41.7,34.4,30.45,WSW,249,1.2,1.2,75,0.00,CLR,,0.00,WeatherDisplay:10.37,2013-02-24 14:04:00,
2013-02-24 14:09:00,42.2,34.5,30.45,WSW,248,2.3,2.3,74,0.00,CLR,,0.00,WeatherDisplay:10.37,2013-02-24 14:09:00,
2013-02-24 14:14:00,42.2,34.5,30.45,WSW,248,1.2,1.2,74,0.00,CLR,,0.00,WeatherDisplay:10.37,2013-02-24 14:14:00,
2013-02-24 14:19:00,42.3,34.9,30.45,WSW,248,1.2,1.2,75,0.00,CLR,,0.00,WeatherDisplay:10.37,2013-02-24 14:19:00,
2013-02-24 14:24:00,42.3,34.3,30.45,WSW,248,1.2,1.2,73,0.00,CLR,,0.00,WeatherDisplay:10.37,2013-02-24 14:24:00,
2013-02-24 14:30:00,42.2,34.5,30.44,WSW,249,1.2,1.2,74,0.00,CLR,,0.00,WeatherDisplay:10.37,2013-02-24 14:30:00,
2013-02-24 14:35:00,42.4,34.7,30.45,WSW,249,2.3,2.3,74,0.00,CLR,,0.00,WeatherDisplay:10.37,2013-02-24 14:35:00,
2013-02-24 14:40:00,42.7,35.3,30.44,WSW,249,2.3,2.3,75,0.00,CLR,,0.00,WeatherDisplay:10.37,2013-02-24 14:40:00,
2013-02-24 14:45:00,42.8,35.4,30.44,WSW,249,1.2,1.2,75,0.00,CLR,,0.00,WeatherDisplay:10.37,2013-02-24 14:45:00,
2013-02-24 14:50:00,42.8,34.4,30.44,WSW,248,1.2,1.2,72,0.00,CLR,,0.00,WeatherDisplay:10.37,2013-02-24 14:50:00,
2013-02-24 14:55:00,42.6,34.2,30.44,WSW,247,2.3,2.3,72,0.00,CLR,,0.00,WeatherDisplay:10.37,2013-02-24 14:55:00,
2013-02-24 15:00:00,42.8,34.7,30.44,WSW,239,2.3,2.3,73,0.00,CLR,,0.00,WeatherDisplay:10.37,2013-02-24 15:00:00,
2013-02-24 15:05:00,43.1,35.0,30.44,WSW,239,2.3,2.3,73,0.00,CLR,,0.00,WeatherDisplay:10.37,2013-02-24 15:05:00,
2013-02-24 15:10:00,43.1,34.3,30.44,SW,228,2.3,2.3,71,0.00,CLR,,0.00,WeatherDisplay:10.37,2013-02-24 15:10:00,
2013-02-24 15:15:00,43.2,34.1,30.44,SSW,211,2.3,2.3,70,0.00,CLR,,0.00,WeatherDisplay:10.37,2013-02-24 15:15:00,
2013-02-24 15:20:00,42.9,33.4,30.44,WSW,237,3.5,3.5,69,0.00,CLR,,0.00,WeatherDisplay:10.37,2013-02-24 15:20:00,
2013-02-24 15:25:00,43.6,34.1,30.44,WSW,245,1.2,1.2,69,0.00,CLR,,0.00,WeatherDisplay:10.37,2013-02-24 15:25:00,
2013-02-24 15:31:00,44.0,33.4,30.43,West,269,2.3,2.3,66,0.00,CLR,,0.00,WeatherDisplay:10.37,2013-02-24 15:31:00,
2013-02-24 15:36:00,44.7,34.0,30.43,WSW,252,2.3,2.3,66,0.00,CLR,,0.00,WeatherDisplay:10.37,2013-02-24 15:36:00,
2013-02-24 15:41:00,45.5,34.4,30.43,WSW,252,2.3,2.3,65,0.00,CLR,,0.00,WeatherDisplay:10.37,2013-02-24 15:41:00,
2013-02-24 15:46:00,45.0,33.5,30.43,SW,225,2.3,2.3,64,0.00,CLR,,0.00,WeatherDisplay:10.37,2013-02-24 15:46:00,
2013-02-24 15:51:00,44.3,32.9,30.43,SSW,211,2.3,2.3,64,0.00,CLR,,0.00,WeatherDisplay:10.37,2013-02-24 15:51:00,
2013-02-24 15:56:00,43.8,32.8,30.43,SSW,205,4.6,4.6,65,0.00,CLR,,0.00,WeatherDisplay:10.37,2013-02-24 15:56:00,
2013-02-24 16:03:00,43.4,33.5,30.43,SSW,195,4.6,4.6,68,0.00,CLR,,0.00,WeatherDisplay:10.37,2013-02-24 16:03:00,
2013-02-24 16:08:00,43.9,34.0,30.43,SSW,194,5.0,5.0,68,0.00,CLR,,0.00,WeatherDisplay:10.37,2013-02-24 16:08:00,
2013-02-24 16:13:00,43.9,34.4,30.44,SSW,200,3.5,3.5,69,0.00,CLR,,0.00,WeatherDisplay:10.37,2013-02-24 16:13:00,
2013-02-24 16:18:00,44.2,35.0,30.44,SSE,157,3.5,3.5,70,0.00,CLR,,0.00,WeatherDisplay:10.37,2013-02-24 16:18:00,
2013-02-24 16:23:00,44.7,35.1,30.44,East,99,3.5,3.5,69,0.00,CLR,,0.00,WeatherDisplay:10.37,2013-02-24 16:23:00,
2013-02-24 16:28:00,44.1,34.6,30.44,SSE,155,4.0,4.0,69,0.00,CLR,,0.00,WeatherDisplay:10.37,2013-02-24 16:28:00,
2013-02-24 16:33:00,44.1,34.9,30.44,South,189,3.5,3.5,70,0.00,CLR,,0.00,WeatherDisplay:10.37,2013-02-24 16:33:00,
2013-02-24 16:38:00,44.3,35.1,30.44,SW,215,3.5,3.5,70,0.00,CLR,,0.00,WeatherDisplay:10.37,2013-02-24 16:38:00,
2013-02-24 16:43:00,44.2,35.4,30.44,SW,221,4.0,4.0,71,0.00,CLR,,0.00,WeatherDisplay:10.37,2013-02-24 16:43:00,
2013-02-24 16:48:00,44.1,35.3,30.44,SSW,201,3.5,3.5,71,0.00,CLR,,0.00,WeatherDisplay:10.37,2013-02-24 16:48:00,
2013-02-24 16:53:00,44.4,35.9,30.44,SW,221,3.0,3.0,72,0.00,CLR,,0.00,WeatherDisplay:10.37,2013-02-24 16:53:00,
2013-02-24 16:58:00,44.2,35.0,30.44,SW,225,2.3,2.3,70,0.00,CLR,,0.00,WeatherDisplay:10.37,2013-02-24 16:58:00,
2013-02-24 17:03:00,44.3,35.8,30.44,WSW,252,1.2,0.0,72,0.00,CLR,,0.00,WeatherDisplay:10.37,2013-02-24 17:03:00,
2013-02-24 17:08:00,44.3,35.1,30.44,WSW,251,1.2,1.2,70,0.00,CLR,,0.00,WeatherDisplay:10.37,2013-02-24 17:08:00,
2013-02-24 17:13:00,43.9,36.1,30.44,WSW,242,3.5,3.5,74,0.00,CLR,,0.00,WeatherDisplay:10.37,2013-02-24 17:13:00,
2013-02-24 17:18:00,42.5,35.5,30.44,WSW,246,1.2,1.2,76,0.00,CLR,,0.00,WeatherDisplay:10.37,2013-02-24 17:18:00,
2013-02-24 17:23:00,41.8,35.4,30.45,WSW,246,1.2,0.0,78,0.00,CLR,,0.00,WeatherDisplay:10.37,2013-02-24 17:23:00,
2013-02-24 17:28:00,41.2,34.9,30.45,WSW,254,1.2,0.0,78,0.00,CLR,,0.00,WeatherDisplay:10.37,2013-02-24 17:28:00,
2013-02-24 17:33:00,40.8,34.5,30.45,WSW,254,1.2,1.2,78,0.00,CLR,,0.00,WeatherDisplay:10.37,2013-02-24 17:33:00,
2013-02-24 17:39:00,40.5,33.9,30.45,West,276,1.2,1.2,77,0.00,CLR,,0.00,WeatherDisplay:10.37,2013-02-24 17:39:00,
2013-02-24 17:44:00,40.2,34.2,30.45,West,276,0.0,0.0,79,0.00,CLR,,0.00,WeatherDisplay:10.37,2013-02-24 17:44:00,
2013-02-24 17:49:00,39.9,33.9,30.45,West,276,0.0,0.0,79,0.00,CLR,,0.00,WeatherDisplay:10.37,2013-02-24 17:49:00,
2013-02-24 17:54:00,39.6,33.9,30.46,West,276,0.0,0.0,80,0.00,CLR,,0.00,WeatherDisplay:10.37,2013-02-24 17:54:00,
2013-02-24 17:59:00,39.5,34.2,30.46,West,276,0.0,0.0,81,0.00,CLR,,0.00,WeatherDisplay:10.37,2013-02-24 17:59:00,
2013-02-24 18:04:00,39.3,34.0,30.46,West,277,0.0,0.0,81,0.00,CLR,,0.00,WeatherDisplay:10.37,2013-02-24 18:04:00,
2013-02-24 18:09:00,39.2,34.2,30.46,West,277,0.0,0.0,82,0.00,CLR,,0.00,WeatherDisplay:10.37,2013-02-24 18:09:00,
2013-02-24 18:14:00,39.0,34.0,30.47,West,264,3.0,3.0,82,0.00,CLR,,0.00,WeatherDisplay:10.37,2013-02-24 18:14:00,
2013-02-24 18:19:00,38.9,34.2,30.47,West,262,2.3,2.3,83,0.00,CLR,,0.00,WeatherDisplay:10.37,2013-02-24 18:19:00,
2013-02-24 18:24:00,38.9,34.5,30.47,West,276,2.3,2.3,84,0.00,CLR,,0.00,WeatherDisplay:10.37,2013-02-24 18:24:00,
2013-02-24 18:29:00,38.8,34.4,30.47,West,276,0.0,0.0,84,0.00,CLR,,0.00,WeatherDisplay:10.37,2013-02-24 18:29:00,
2013-02-24 18:34:00,38.5,33.8,30.47,West,275,0.0,0.0,83,0.00,CLR,,0.00,WeatherDisplay:10.37,2013-02-24 18:34:00,
2013-02-24 18:39:00,37.9,32.9,30.47,WNW,285,2.0,2.0,82,0.00,CLR,,0.00,WeatherDisplay:10.37,2013-02-24 18:39:00,
2013-02-24 18:44:00,37.3,32.3,30.47,WNW,303,1.2,0.0,82,0.00,CLR,,0.00,WeatherDisplay:10.37,2013-02-24 18:44:00,
2013-02-24 18:49:00,37.0,32.3,30.47,WNW,303,0.0,0.0,83,0.00,CLR,,0.00,WeatherDisplay:10.37,2013-02-24 18:49:00,
2013-02-24 18:54:00,36.7,32.0,30.47,WNW,303,0.0,0.0,83,0.00,CLR,,0.00,WeatherDisplay:10.37,2013-02-24 18:54:00,
2013-02-24 18:59:00,36.4,31.7,30.48,NW,304,1.2,1.2,83,0.00,CLR,,0.00,WeatherDisplay:10.37,2013-02-24 18:59:00,
2013-02-24 19:04:00,36.3,31.9,30.47,WNW,302,1.2,1.2,84,0.00,CLR,,0.00,WeatherDisplay:10.37,2013-02-24 19:04:00,
2013-02-24 19:09:00,36.7,32.6,30.47,West,274,2.3,2.3,85,0.00,CLR,,0.00,WeatherDisplay:10.37,2013-02-24 19:09:00,
2013-02-24 19:14:00,37.4,33.3,30.47,WSW,256,3.5,3.5,85,0.00,CLR,,0.00,WeatherDisplay:10.37,2013-02-24 19:14:00,
2013-02-24 19:19:00,37.8,33.4,30.47,West,261,2.3,2.3,84,0.00,CLR,,0.00,WeatherDisplay:10.37,2013-02-24 19:19:00,
2013-02-24 19:25:00,37.9,33.5,30.47,West,262,2.3,2.3,84,0.00,CLR,,0.00,WeatherDisplay:10.37,2013-02-24 19:25:00,
2013-02-24 19:30:00,37.8,33.4,30.47,West,261,1.2,1.2,84,0.00,CLR,,0.00,WeatherDisplay:10.37,2013-02-24 19:30:00,
2013-02-24 19:35:00,37.3,32.9,30.47,West,262,1.2,1.2,84,0.00,CLR,,0.00,WeatherDisplay:10.37,2013-02-24 19:35:00,
2013-02-24 19:41:00,37.2,32.8,30.48,West,266,0.0,0.0,84,0.00,CLR,,0.00,WeatherDisplay:10.37,2013-02-24 19:41:00,
2013-02-24 19:46:00,36.8,32.4,30.48,West,267,0.0,0.2,84,0.00,CLR,,0.00,WeatherDisplay:10.37,2013-02-24 19:46:00,
2013-02-24 19:51:00,36.9,32.5,30.48,West,266,1.2,1.2,84,0.00,CLR,,0.00,WeatherDisplay:10.37,2013-02-24 19:51:00,
2013-02-24 19:56:00,37.2,32.8,30.48,West,271,2.3,2.3,84,0.00,CLR,,0.00,WeatherDisplay:10.37,2013-02-24 19:56:00,
2013-02-24 20:01:00,37.1,32.4,30.48,West,271,0.0,0.0,83,0.00,CLR,,0.00,WeatherDisplay:10.37,2013-02-24 20:01:00,
2013-02-24 20:06:00,36.8,32.1,30.48,West,271,1.0,1.0,83,0.00,CLR,,0.00,WeatherDisplay:10.37,2013-02-24 20:06:00,
2013-02-24 20:11:00,36.9,32.5,30.48,West,271,2.3,2.3,84,0.00,CLR,,0.00,WeatherDisplay:10.37,2013-02-24 20:11:00,
2013-02-24 20:16:00,37.3,32.6,30.48,West,271,1.2,1.2,83,0.00,CLR,,0.00,WeatherDisplay:10.37,2013-02-24 20:16:00,
2013-02-24 20:21:00,37.4,32.7,30.48,West,271,0.0,0.0,83,0.00,CLR,,0.00,WeatherDisplay:10.37,2013-02-24 20:21:00,
2013-02-24 20:26:00,37.4,32.4,30.49,West,271,0.0,0.0,82,0.00,CLR,,0.00,WeatherDisplay:10.37,2013-02-24 20:26:00,
2013-02-24 20:31:00,37.3,32.6,30.49,West,271,0.0,0.0,83,0.00,CLR,,0.00,WeatherDisplay:10.37,2013-02-24 20:31:00,
2013-02-24 20:36:00,37.2,32.5,30.49,West,271,0.0,0.0,83,0.00,CLR,,0.00,WeatherDisplay:10.37,2013-02-24 20:36:00,
2013-02-24 20:41:00,37.2,32.5,30.49,West,271,0.0,0.0,83,0.00,CLR,,0.00,WeatherDisplay:10.37,2013-02-24 20:41:00,
2013-02-24 20:46:00,37.3,33.2,30.49,West,271,0.0,0.0,85,0.00,CLR,,0.00,WeatherDisplay:10.37,2013-02-24 20:46:00,
2013-02-24 20:51:00,37.3,33.5,30.49,West,271,0.0,0.0,86,0.00,CLR,,0.00,WeatherDisplay:10.37,2013-02-24 20:51:00,
2013-02-24 20:56:00,37.3,33.5,30.49,West,271,0.0,0.0,86,0.00,CLR,,0.00,WeatherDisplay:10.37,2013-02-24 20:56:00,
2013-02-24 21:01:00,37.2,33.1,30.49,West,271,0.0,0.0,85,0.00,CLR,,0.00,WeatherDisplay:10.37,2013-02-24 21:01:00,
2013-02-24 21:06:00,37.3,33.2,30.49,West,271,0.0,0.0,85,0.00,CLR,,0.00,WeatherDisplay:10.37,2013-02-24 21:06:00,
2013-02-24 21:11:00,37.1,32.4,30.49,West,271,0.0,0.0,83,0.00,CLR,,0.00,WeatherDisplay:10.37,2013-02-24 21:11:00,
2013-02-24 21:16:00,36.9,31.6,30.49,NW,314,1.2,1.2,81,0.00,CLR,,0.00,WeatherDisplay:10.37,2013-02-24 21:16:00,
2013-02-24 21:21:00,37.3,31.7,30.49,NNW,330,1.2,1.2,80,0.00,CLR,,0.00,WeatherDisplay:10.37,2013-02-24 21:21:00,
2013-02-24 21:26:00,37.6,31.4,30.49,NNW,344,2.3,2.3,78,0.00,CLR,,0.00,WeatherDisplay:10.37,2013-02-24 21:26:00,
2013-02-24 21:31:00,37.9,31.3,30.49,NNW,334,3.5,3.5,77,0.00,CLR,,0.00,WeatherDisplay:10.37,2013-02-24 21:31:00,
2013-02-24 21:36:00,38.0,31.4,30.49,North,349,3.5,3.5,77,0.00,CLR,,0.00,WeatherDisplay:10.37,2013-02-24 21:36:00,
2013-02-24 21:41:00,38.1,31.5,30.49,North,359,4.6,4.6,77,0.00,CLR,,0.00,WeatherDisplay:10.37,2013-02-24 21:41:00,
2013-02-24 21:46:00,38.3,31.4,30.49,WNW,287,0.0,0.0,76,0.00,CLR,,0.00,WeatherDisplay:10.37,2013-02-24 21:46:00,
2013-02-24 21:51:00,38.2,31.6,30.49,WNW,283,0.0,0.0,77,0.00,CLR,,0.00,WeatherDisplay:10.37,2013-02-24 21:51:00,
2013-02-24 21:56:00,38.0,31.7,30.50,WNW,283,0.0,0.1,78,0.00,CLR,,0.00,WeatherDisplay:10.37,2013-02-24 21:56:00,
2013-02-24 22:01:00,38.0,32.7,30.50,WSW,243,3.5,3.5,81,0.00,CLR,,0.00,WeatherDisplay:10.37,2013-02-24 22:01:00,
2013-02-24 22:06:00,37.7,32.7,30.50,West,264,2.3,2.3,82,0.00,CLR,,0.00,WeatherDisplay:10.37,2013-02-24 22:06:00,
2013-02-24 22:12:00,37.5,32.8,30.50,West,265,3.5,3.5,83,0.00,CLR,,0.00,WeatherDisplay:10.37,2013-02-24 22:12:00,
2013-02-24 22:17:00,37.2,32.5,30.50,WSW,250,2.3,2.3,83,0.00,CLR,,0.00,WeatherDisplay:10.37,2013-02-24 22:17:00,
2013-02-24 22:22:00,37.4,33.0,30.50,WSW,252,2.3,2.3,84,0.00,CLR,,0.00,WeatherDisplay:10.37,2013-02-24 22:22:00,
2013-02-24 22:27:00,37.3,32.9,30.49,WSW,252,1.2,1.2,84,0.00,CLR,,0.00,WeatherDisplay:10.37,2013-02-24 22:27:00,
2013-02-24 22:32:00,37.0,32.6,30.50,WSW,252,1.2,1.2,84,0.00,CLR,,0.00,WeatherDisplay:10.37,2013-02-24 22:32:00,
2013-02-24 22:37:00,36.5,32.1,30.50,West,270,1.2,1.2,84,0.00,CLR,,0.00,WeatherDisplay:10.37,2013-02-24 22:37:00,
2013-02-24 22:42:00,35.9,31.5,30.50,West,269,0.0,0.0,84,0.00,CLR,,0.00,WeatherDisplay:10.37,2013-02-24 22:42:00,
2013-02-24 22:47:00,35.2,30.9,30.50,West,273,0.0,0.0,84,0.00,CLR,,0.00,WeatherDisplay:10.37,2013-02-24 22:47:00,
2013-02-24 22:52:00,35.1,31.0,30.50,WNW,299,1.2,1.2,85,0.00,CLR,,0.00,WeatherDisplay:10.37,2013-02-24 22:52:00,
2013-02-24 22:58:00,34.9,30.6,30.50,NW,318,1.2,1.2,84,0.00,CLR,,0.00,WeatherDisplay:10.37,2013-02-24 22:58:00,
2013-02-24 23:04:00,35.0,30.9,30.50,NW,318,0.0,0.2,85,0.00,CLR,,0.00,WeatherDisplay:10.37,2013-02-24 23:04:00,
2013-02-24 23:09:00,34.8,30.5,30.50,NW,318,0.0,0.0,84,0.00,CLR,,0.00,WeatherDisplay:10.37,2013-02-24 23:09:00,
2013-02-24 23:14:00,34.5,30.5,30.50,NW,318,0.0,0.0,85,0.00,CLR,,0.00,WeatherDisplay:10.37,2013-02-24 23:14:00,
2013-02-24 23:19:00,34.6,31.1,30.50,NW,318,0.0,0.0,87,0.00,CLR,,0.00,WeatherDisplay:10.37,2013-02-24 23:19:00,
2013-02-24 23:24:00,34.4,30.9,30.50,NW,318,1.2,1.2,87,0.00,CLR,,0.00,WeatherDisplay:10.37,2013-02-24 23:24:00,
2013-02-24 23:29:00,34.4,31.2,30.50,NW,318,1.2,1.2,88,0.00,CLR,,0.00,WeatherDisplay:10.37,2013-02-24 23:29:00,
2013-02-24 23:34:00,34.3,31.1,30.50,NW,318,0.0,0.0,88,0.00,CLR,,0.00,WeatherDisplay:10.37,2013-02-24 23:34:00,
2013-02-24 23:39:00,34.1,30.9,30.50,WSW,250,0.0,0.0,88,0.00,CLR,,0.00,WeatherDisplay:10.37,2013-02-24 23:39:00,
2013-02-24 23:44:00,34.0,30.8,30.50,NW,311,1.2,1.2,88,0.00,CLR,,0.00,WeatherDisplay:10.37,2013-02-24 23:44:00,
2013-02-24 23:49:00,34.2,31.3,30.50,NW,311,1.2,0.0,89,0.00,CLR,,0.00,WeatherDisplay:10.37,2013-02-24 23:49:00,
2013-02-24 23:54:00,34.5,31.6,30.50,WNW,290,0.0,0.0,89,0.00,CLR,,0.00,WeatherDisplay:10.37,2013-02-24 23:54:00,
2013-02-24 23:59:00,34.5,31.3,30.50,WNW,291,1.2,1.2,88,0.00,CLR,,0.00,WeatherDisplay:10.37,2013-02-24 23:59:00,